Starlink 4147

operational
NORAD ID: 53256 Int'l Des: 2022-086 Owner: SPXS Country: US Constellation: starlink
LEOCIRCULAR

About Starlink 4147

Description loading...

Live Position

Loading 3D Globe...

Upcoming Passes

Altitude History

Altitude vs Time

uPlot chart will show altitude changes over time

Two-Line Element Set

1 53256U 22086Q 25303.73188231 -.00000225 00000-0 39469-5 0 9991
2 53256 53.2167 57.5213 0001378 93.0536 267.0614 15.08837418181444
Epoch: Oct 30, 2025 • Age: 8 hours

Current Status

Altitude 542.0 km
Velocity 7.59 km/s
Sub-Earth Point -6.65°S, 10.71°W
Launch Date Jul 24, 2022
Age 3.2 years
Type internet

Technical Details

Classification Payload
Mass 297.00 kg
Dry Mass 275.00 kg
Total Mass 297.00 kg
Length 0.20 m
Diameter 2.80 m
Span 9.00 m
Shape Box + pan
Manufacturer SPXS
Bus Type Starlink
Phase Status In Orbit
Owner/State SPXS/US

Large Constellations

Loading constellations...